[[{"header":{"parameterUnit":"m.s-1","parameterCategory":1,"la1":30.2991,"la2":30.254,"lo1":-89.0895,"lo2":-89.0444,"dx":0.0017,"dy":0.0017,"nx":28,"ny":28,"refTime":"2022-11-05T21:00:00:Z","depth":0,"parameterNumber":2,"parameterNumberName":"U-component_of_WINDS"},"data":[0,0,0,0,0,0,0,0,0,0,0,0,0,0,0,0,0,0,0,0,0,0,0,0,0,0,0,0,0,0,0,0,0,0,0,0,0,0,0,0,0,0,0,0,0,0,0,0,0,0,0,0,0,0,0,0,0,0,-2.2973,-2.2973,0,-2.2991,-2.2991,-2.2991,-2.2955,-2.2954,-2.2952,-2.2951,-2.297,-2.2972,-2.2974,0,0,0,0,0,0,0,0,0,0,0,0,0,-2.2907,-2.2908,-2.2973,-2.2973,-2.2973,-2.2991,-2.2991,-2.2991,-2.2955,-2.2953,-2.2952,-2.2951,-2.297,-2.2972,-2.2974,0,0,0,0,0,0,0,0,0,0,0,0,0,-2.2931,-2.2909,-2.2973,-2.2957,-2.2956,-2.2991,-2.2991,-2.2991,-2.2955,-2.2953,-2.2952,-2.295,-2.2969,-2.2972,-2.2974,-2.3025,0,0,-2.2981,-2.2983,0,0,0,0,0,0,0,0,-2.293,-2.2934,-2.2959,-2.2958,-2.2957,-2.2969,-2.2975,-2.3003,-2.2956,-2.2956,-2.2951,-2.2949,-2.2971,-2.2973,-2.2981,-2.3026,-2.3027,-2.2982,-2.2983,-2.2984,-2.2985,0,0,0,0,0,0,0,-2.2928,-2.2933,-2.298,-2.296,-2.2958,-2.2949,-2.2951,-2.298,-2.2973,-2.2955,-2.2953,-2.2955,-2.297,-2.2979,-2.2981,-2.3027,-2.2982,-2.2984,-2.2985,-2.2986,-2.3115,-2.3117,0,0,0,0,0,0,-2.2929,-2.2932,-2.2979,-2.298,-2.2939,-2.2952,-2.2954,-2.2967,-2.2973,-2.2972,-2.2957,-2.2954,-2.2975,-2.2978,-2.2982,-2.3042,-2.2984,-2.2987,-2.2988,-2.3113,-2.3116,-2.3118,0,0,0,0,0,0,-2.2927,-2.2933,-2.2979,-2.2955,-2.296,-2.2955,-2.297,-2.2968,-2.2976,-2.2974,-2.2973,-2.2967,-2.2974,-2.2978,-2.3015,-2.3042,-2.2988,-2.299,-2.3111,-2.3114,-2.3117,-2.3163,0,0,0,0,0,0,-2.2926,-2.2933,-2.2952,-2.2956,-2.2962,-2.3011,-2.2972,-2.297,-2.298,-2.2976,-2.2983,-2.2982,-2.2973,-2.3011,-2.3017,-2.3044,-2.2992,-2.3109,-2.3113,-2.3116,-2.3159,-2.3167,-2.3174,0,0,0,0,0,-2.2923,-2.2964,-2.2953,-2.2959,-2.2986,-2.3013,-2.3016,-2.3005,-2.2983,-2.3002,-2.3001,-2.2982,-2.3038,-2.3015,-2.3021,-2.305,-2.3107,-2.3111,-2.3116,-2.3155,-2.3165,-2.3174,0,0,0,0,0,0,-2.2963,-2.2964,-2.2952,-2.2996,-2.3004,-2.3006,-2.303,-2.3015,-2.3031,-2.3026,-2.3012,-2.3013,-2.3053,-2.3055,-2.3029,-2.31,-2.3069,-2.3075,-2.3097,-2.3106,-2.3114,-2.3112,-2.2994,0,0,0,0,0,-2.2977,-2.2999,-2.2999,-2.3037,-2.3042,-2.3036,-2.3047,-2.3038,-2.3046,-2.305,-2.3051,-2.306,-2.308,-2.3093,-2.3111,-2.3159,-2.316,-2.3182,-2.3189,-2.3196,-2.3201,-2.3226,-2.3236,-2.3132,-2.3132,-2.3132,0,0,-2.3006,-2.301,-2.3024,-2.3045,-2.3051,-2.3074,-2.3039,-2.3065,-2.3082,-2.3054,-2.3088,-2.309,-2.3099,-2.3141,-2.316,-2.3144,-2.323,-2.3201,-2.3206,-2.3208,-2.3232,-2.3242,-2.325,-2.3135,-2.3135,-2.3134,0,0,-2.3071,-2.3075,-2.3108,-2.3114,-2.3124,-2.3119,-2.3127,-2.3132,-2.3131,-2.3166,-2.3145,-2.3165,-2.32,-2.3207,-2.3216,-2.3284,-2.3267,-2.329,-2.3329,-2.3355,-2.3363,-2.337,-2.3394,-2.3403,-2.3295,-2.3296,-2.3296,0,-2.3105,-2.3139,-2.3126,-2.3154,-2.3164,-2.314,-2.3173,-2.318,-2.3194,-2.3202,-2.3184,-2.3227,-2.3232,-2.3275,-2.3292,-2.33,-2.3309,-2.3289,-2.3363,-2.337,-2.3376,-2.3399,-2.3408,-2.3298,-2.3298,-2.3298,-2.3297,0,-2.3181,-2.3205,-2.3231,-2.3245,-2.3258,-2.3288,-2.3281,-2.3295,-2.3285,-2.3283,-2.3318,-2.3323,-2.3342,-2.3351,-2.3341,-2.3394,-2.3384,-2.3365,-2.3333,-2.3389,-2.341,-2.3419,-2.3302,-2.3301,-2.33,-2.33,0,0,-2.3271,-2.3279,-2.3288,-2.3295,-2.3303,-2.3322,-2.3351,-2.3369,-2.3382,-2.3394,-2.3418,-2.3448,-2.343,-2.344,-2.3431,-2.3453,-2.3506,-2.3431,-2.3431,-2.3444,-2.3565,-2.3579,-2.3589,-2.3496,-2.3497,-2.3498,-2.3564,0,-2.3334,-2.3385,-2.3374,-2.3423,-2.3446,-2.3423,-2.3449,-2.3457,-2.3456,-2.3474,-2.3473,-2.3494,-2.347,-2.3475,-2.3496,-2.3495,-2.353,-2.3491,-2.3518,-2.3519,-2.3516,-2.36,-2.3615,-2.3677,-2.3572,-2.3574,-2.3575,0,-2.3415,-2.343,-2.3481,-2.3487,-2.3495,-2.3518,-2.3535,-2.3553,-2.3562,-2.3559,-2.3571,-2.3557,-2.3587,-2.3555,-2.3596,-2.3569,-2.358,-2.3581,-2.3583,-2.3585,-2.355,-2.3604,-2.3696,-2.3705,-2.3588,-2.3587,-2.3586,0,-2.3475,-2.3507,-2.3542,-2.3549,-2.3556,-2.3573,-2.3577,-2.3584,-2.3596,-2.361,-2.3618,-2.3635,-2.3645,-2.3659,-2.3651,-2.3629,-2.3693,-2.3661,-2.3692,-2.3692,-2.3706,-2.3705,-2.38,-2.3714,-2.3714,-2.3713,-2.3713,0,-2.3547,-2.3579,-2.3569,-2.3591,-2.3626,-2.3615,-2.365,-2.3652,-2.3659,-2.368,-2.3662,-2.3683,-2.3671,-2.3691,-2.3685,-2.372,-2.3724,-2.3723,-2.3721,-2.3725,-2.3725,-2.3731,-2.3726,-2.3716,-2.3715,-2.3715,-2.3714,0,-2.3619,-2.3614,-2.3651,-2.3655,-2.3657,-2.3683,-2.3687,-2.3707,-2.3704,-2.3732,-2.3738,-2.3734,-2.3757,-2.375,-2.3775,-2.3771,-2.3814,-2.3807,-2.3811,-2.3809,-2.384,-2.3837,-2.3943,-2.3956,-2.3861,-2.3862,-2.3863,0,-2.3665,-2.369,-2.3697,-2.371,-2.3715,-2.3737,-2.3749,-2.3738,-2.3752,-2.3764,-2.3783,-2.3804,-2.382,-2.3857,-2.3857,-2.3876,-2.3868,-2.3904,-2.3871,-2.3874,-2.3869,-2.3867,-2.387,-2.3911,-2.3912,-2.3912,-2.3913,0,-2.3747,-2.3744,-2.3762,-2.3779,-2.3794,-2.3807,-2.3819,-2.3831,-2.3821,-2.3837,-2.386,-2.3873,-2.3898,-2.3919,-2.3936,-2.394,-2.3925,-2.3924,-2.3932,-2.3935,-2.3937,-2.3936,-2.3829,-2.3921,-2.392,-2.392,-2.3919,-2.3919,-2.3808,-2.3828,-2.3837,-2.3858,-2.3865,-2.3877,-2.3896,-2.3896,-2.3915,-2.3935,-2.3928,-2.3954,-2.3963,-2.3984,-2.3991,-2.4011,-2.3998,-2.401,-2.4013,-2.4016,-2.4019,-2.3934,-2.4015,-2.4014,-2.4014,-2.4014,-2.4014,0,-2.3889,-2.3893,-2.3912,-2.3929,-2.3946,-2.3931,-2.3943,-2.3958,-2.3981,-2.3991,-2.4007,-2.4034,-2.4054,-2.4056,-2.4075,-2.4091,-2.4085,-2.4097,-2.4095,-2.4096,-2.403,-2.4021,-2.4101,-2.4101,-2.4101,-2.4101,-2.4101,-2.4101,-2.3933,-2.3967,-2.3964,-2.4003,-2.4007,-2.4032,-2.4041,-2.4051,-2.4059,-2.4089,-2.4106,-2.4107,-2.4114,-2.4134,-2.4152,-2.4152,-2.416,-2.4174,-2.4171,-2.411,-2.4101,-2.4093,-2.4084,-2.4176,-2.4176,-2.4235,-2.4236,-2.4236]},{"header":{"parameterUnit":"m.s-1","parameterCategory":1,"la1":30.2991,"la2":30.254,"lo1":-89.0895,"lo2":-89.0444,"dx":0.0017,"dy":0.0017,"nx":28,"ny":28,"refTime":"2022-11-05T21:00:00:Z","depth":0,"parameterNumber":3,"parameterNumberName":"V-component_of_WINDS"},"data":[0,0,0,0,0,0,0,0,0,0,0,0,0,0,0,0,0,0,0,0,0,0,0,0,0,0,0,0,0,0,0,0,0,0,0,0,0,0,0,0,0,0,0,0,0,0,0,0,0,0,0,0,0,0,0,0,0,0,0.1864,0.1864,0,0.1879,0.1879,0.188,0.1907,0.1908,0.1909,0.1909,0.1923,0.1922,0.1922,0,0,0,0,0,0,0,0,0,0,0,0,0,0.1857,0.1857,0.1864,0.1864,0.1864,0.1879,0.1879,0.188,0.1907,0.1908,0.1909,0.1909,0.1923,0.1922,0.1922,0,0,0,0,0,0,0,0,0,0,0,0,0,0.1865,0.1857,0.1864,0.188,0.1881,0.1879,0.1879,0.188,0.1907,0.1908,0.1909,0.191,0.1923,0.1922,0.1922,0.1905,0,0,0.1922,0.1921,0,0,0,0,0,0,0,0,0.1865,0.1865,0.1877,0.1879,0.1881,0.1892,0.1882,0.1888,0.1907,0.1897,0.1909,0.191,0.1912,0.1912,0.1913,0.1905,0.1906,0.1922,0.1921,0.1921,0.1921,0,0,0,0,0,0,0,0.1864,0.1865,0.187,0.1877,0.1879,0.1886,0.1888,0.1883,0.19,0.1898,0.19,0.1902,0.1913,0.1914,0.1914,0.1906,0.1922,0.1921,0.1921,0.1921,0.1886,0.1885,0,0,0,0,0,0,0.1861,0.1864,0.1869,0.187,0.1874,0.1885,0.1888,0.1888,0.19,0.1903,0.1901,0.1903,0.1914,0.1914,0.1915,0.1896,0.1921,0.1921,0.1921,0.1887,0.1886,0.1885,0,0,0,0,0,0,0.1861,0.1861,0.1869,0.1868,0.1869,0.1885,0.1884,0.1888,0.1888,0.1902,0.1905,0.1899,0.1914,0.1915,0.1907,0.1897,0.1921,0.1921,0.1888,0.1887,0.1885,0.1858,0,0,0,0,0,0,0.1861,0.1861,0.1855,0.1867,0.1869,0.1861,0.1884,0.1887,0.1888,0.1891,0.1901,0.1903,0.1915,0.1908,0.1907,0.1897,0.1921,0.1889,0.1887,0.1886,0.1859,0.1856,0.1852,0,0,0,0,0,0.186,0.1845,0.1854,0.1855,0.1862,0.1861,0.1862,0.1876,0.1887,0.1881,0.189,0.1903,0.1898,0.1907,0.1906,0.1896,0.189,0.1888,0.1886,0.1861,0.1856,0.1852,0,0,0,0,0,0,0.183,0.1847,0.1857,0.1846,0.1852,0.1865,0.1858,0.187,0.1872,0.1874,0.1891,0.1893,0.1884,0.1889,0.1898,0.188,0.1896,0.1894,0.1877,0.1873,0.1869,0.1868,0.192,0,0,0,0,0,0.1822,0.182,0.1835,0.1824,0.1827,0.1842,0.1842,0.1853,0.1859,0.1861,0.187,0.1875,0.1875,0.1874,0.1874,0.1861,0.1864,0.1853,0.185,0.1847,0.1845,0.1839,0.1835,0.1879,0.1879,0.1879,0,0,0.1805,0.1814,0.1812,0.1818,0.1824,0.1822,0.1843,0.184,0.1839,0.186,0.1854,0.1861,0.1868,0.1858,0.1854,0.1862,0.1833,0.1844,0.1842,0.1841,0.1837,0.1832,0.1829,0.1878,0.1878,0.1878,0,0,0.1773,0.178,0.1772,0.1778,0.1787,0.1798,0.1796,0.1808,0.1814,0.1808,0.1825,0.1824,0.1822,0.1827,0.1829,0.1802,0.1814,0.1802,0.1782,0.1777,0.1773,0.177,0.1761,0.1758,0.18,0.18,0.18,0,0.1751,0.1749,0.1766,0.1762,0.1765,0.1786,0.1778,0.1783,0.1791,0.1792,0.1802,0.1802,0.1808,0.18,0.1794,0.1794,0.1793,0.18,0.1772,0.177,0.1767,0.1759,0.1755,0.1798,0.1798,0.1799,0.1799,0,0.1722,0.172,0.1712,0.1722,0.1723,0.1717,0.1733,0.1733,0.1744,0.1754,0.1749,0.1757,0.176,0.1759,0.1769,0.1753,0.1758,0.1769,0.1786,0.1761,0.1753,0.175,0.1796,0.1797,0.1797,0.1797,0,0,0.1669,0.169,0.1687,0.1692,0.1704,0.1703,0.1699,0.1703,0.1703,0.1708,0.1705,0.1705,0.1716,0.1719,0.173,0.1725,0.1704,0.1738,0.1738,0.1732,0.1688,0.1679,0.1674,0.1713,0.1712,0.1712,0.1687,0,0.1641,0.1635,0.1651,0.164,0.164,0.1661,0.1657,0.1665,0.1674,0.1674,0.1684,0.1684,0.1699,0.1701,0.1697,0.1707,0.1695,0.1709,0.171,0.171,0.1707,0.167,0.1661,0.1637,0.1684,0.1684,0.1683,0,0.1606,0.1611,0.1601,0.1616,0.1616,0.1613,0.1619,0.1619,0.1628,0.1636,0.164,0.1653,0.165,0.1666,0.1662,0.1671,0.1672,0.1678,0.1677,0.1677,0.1695,0.167,0.163,0.1626,0.1679,0.1679,0.1679,0,0.157,0.1574,0.1569,0.1573,0.159,0.1587,0.1594,0.1604,0.1606,0.1611,0.1613,0.1617,0.162,0.1623,0.1638,0.1648,0.1632,0.1649,0.1638,0.1638,0.1633,0.1633,0.1593,0.1634,0.1634,0.1634,0.1634,0,0.1536,0.1529,0.1554,0.155,0.1544,0.1563,0.1555,0.1564,0.1574,0.1573,0.1591,0.159,0.1609,0.161,0.1622,0.1617,0.1618,0.1624,0.1627,0.1622,0.1621,0.1623,0.1625,0.1633,0.1634,0.1634,0.1634,0,0.1493,0.151,0.1506,0.1523,0.1528,0.1522,0.1537,0.1534,0.1546,0.1544,0.1545,0.1563,0.1565,0.158,0.1585,0.1593,0.1585,0.1591,0.1582,0.1584,0.1572,0.1573,0.1531,0.1527,0.157,0.157,0.157,0,0.1471,0.1466,0.1484,0.1485,0.1491,0.1493,0.1496,0.1515,0.1517,0.1528,0.1525,0.1529,0.1533,0.1536,0.1549,0.1553,0.156,0.1545,0.156,0.1556,0.156,0.156,0.156,0.1541,0.1541,0.154,0.154,0,0.1429,0.1438,0.1441,0.1449,0.1452,0.1458,0.1465,0.1465,0.1486,0.1488,0.1491,0.1494,0.1501,0.1505,0.1512,0.1519,0.1533,0.1535,0.1533,0.1528,0.1523,0.1526,0.1573,0.1536,0.1536,0.1536,0.1537,0.1537,0.1396,0.1393,0.1406,0.141,0.1418,0.1425,0.1424,0.1436,0.144,0.1447,0.1458,0.146,0.1471,0.1482,0.1488,0.149,0.1498,0.1494,0.1494,0.1493,0.149,0.1523,0.1491,0.1491,0.1491,0.1492,0.1492,0,0.1355,0.1365,0.1369,0.1379,0.1383,0.1397,0.1406,0.1408,0.141,0.1419,0.1424,0.1428,0.1432,0.1446,0.1452,0.1451,0.1458,0.1452,0.1452,0.1454,0.1483,0.1484,0.1447,0.1447,0.1447,0.1447,0.1447,0.1447,0.1335,0.1332,0.1342,0.1344,0.1354,0.1357,0.1361,0.1367,0.1375,0.138,0.1384,0.1394,0.1405,0.1412,0.1417,0.1421,0.1423,0.1415,0.1421,0.1447,0.1452,0.1456,0.1457,0.1415,0.1415,0.1393,0.1392,0.1392]}]]